Location: La Comballaz
(46.3780°N, 7.0817°E)
Time: 05:34:43
(UTC+00:00)

SPOT 1/Viking Rocket - Pass Details

Date: 09 April 2020
Orbit: 776 x 795 km, 98.5° (Epoch: 01 June)

Event Time Altitude Azimuth Distance (km) Brightness Sun altitude
Exits shadow 21:30:46 42° 252° (WSW) 1,119 4.4 -29.2°
Maximum altitude 21:31:05 43° 262° (W) 1,112 4.4 -29.2°
Drops below altitude 10° 21:36:04 10° 333° (NNW) 2,375 6.9 -29.7°
Sets 21:38:32 0° 341° (NNW) 3,309 7.9 -29.9°
